Terug naar catalogus

DELTA 1 DEB

ActiefSSO
NORAD 10829·DEBRIS·🇺🇸 United States

Gelanceerd Jul 29, 1976 vanaf Vandenberg Space Force Base

Loading…

Volgende Passages (komende 24 uur)

TLE

VersSource: Space-Track

Epoch: Sep 14, 2026, 09:22 UTC

1 10829U 76077BZ  26257.39072157  .00000056  00000-0  77091-3 0  9991
2 10829 101.7849 211.6472 0041389 304.7733 212.9393 12.36771689260161

Volg DELTA 1 DEB in realtime met AllMySat

Download on the App Store